OSCAR 32

Last updated on Fri Jun 19 2026 20:04:44 GMT+0000 (Coordinated Universal Time)

1 19071U 88033B 26170.34418167 .00000031 00000+0 47447-4 0 9993 2 19071 90.3278 22.4984 0188006 3.2035 169.6254 13.27980513847689
UTC large
Height (km)
Speed (km/s)
/
Latitude / Longitude
Inclination (degrees)
Orbital Period (minutes)
Azimuth
Elevation
Range (km)
Doppler Factor

Next 0 passes for location: London (51.5072 / 0.1276)

Sorry there are no passes over London.
OSCAR 32